Location: Unspecified
(43.4680°N, 87.1740°E)
Time: 21:11:02
(UTC+00:00)

Cosmos 1655 Rocket - Pass Details

Date: 17 April 2021
Orbit: 970 x 1007 km, 82.9° (Epoch: 11 May)

Event Time Altitude Azimuth Distance (km) Brightness Sun altitude
Rises 14:42:47 0° 357° (N) 3,710 7.6 -18.1°
Reaches altitude 10° 14:45:28 10° 4° (N) 2,751 6.8 -18.5°
Maximum altitude 14:51:26 43° 75° (ENE) 1,344 4.4 -19.4°
Enters shadow 14:53:27 34° 118° (ESE) 1,564 4.5 -19.7°
